Regional Weather Roundup
Issued by NWS

Home | Current Version | Previous Version | Graphics & Text | Print | Product List | Glossary On
Versions: 1 2 3 4 5 6 7 8 9 10 11 12 13 14 15 16 17 18 19 20 21 22 23 24 25 26 27 28 29 30 31 32 33 34 35 36 37 38 39 40 41 42 43 44 45 46 47 48 49 50
430
ASUS44 KJAN 160010
RWRMS

MISSISSIPPI HOURLY WEATHER ROUNDUP
NATIONAL WEATHER SERVICE JACKSON MS
700 PM CDT TUE APR 15 2014

NOTE: "FAIR: INDICATES FEW OR NO CLOUDS BELOW 12,000 FEET WITH NO
SIGNIFICANT WEATHER AND/OR OBSTRUCTIONS TO VISIBILITY.

MSZ001>002-007>008-010>013-018>021-025>028-034>036-160100-
NORTHWEST MISSISSIPPI

CITY           SKY/WX    TMP DP  RH WIND       PRES   REMARKS
CLARKSDALE       N/A     48  30  49 N13       30.20R
CLEVELAND      FAIR      49  33  54 N12       30.18F
GREENWOOD      CLEAR     49  27  42 NW9       30.17S
6HR MIN TEMP:  49; 6HR MAX TEMP:  52;

GREENVILLE     CLEAR     50  32  50 N10       30.18S
6HR MIN TEMP:  49; 6HR MAX TEMP:  53;

GRENADA        FAIR      48  25  40 N7        30.17R
OLIVE BRANCH   CLEAR     45  27  49 N12       30.18S
OXFORD         FAIR      45  21  39 N7        30.19R
TUNICA         CLEAR     46  30  53 N10       30.20S
$$

MSZ003>006-009-014>017-022>024-029>033-037>039-160100-
NORTHEAST MISSISSIPPI

CITY           SKY/WX    TMP DP  RH WIND       PRES   REMARKS
BELMONT        FAIR      47  23  38 N9G17     30.12F
COLUMBUS AFB   CLEAR     50  24  36 N15       30.13R
6HR MIN TEMP:  49; 6HR MAX TEMP:  54;

CORINTH        FAIR      46  21  36 N10       30.16S
GOLDN TRIANGLE CLEAR     50  25  37 N15G21    30.15R
STARKVILLE     FAIR      50  23  34 N5        30.13R
TUPELO         CLEAR     48  23  37 N13G24    30.13S
6HR MIN TEMP:  48; 6HR MAX TEMP:  52;

$$

MSZ040-058-160100-
CENTRAL MISSISSIPPI

CITY           SKY/WX    TMP DP  RH WIND       PRES   REMARKS
JACKSON INTL   CLEAR     51  27  39 NW8G18    30.17R
6HR MIN TEMP:  51; 6HR MAX TEMP:  55;

JACKSON HAWKNS CLEAR     50  26  39 N7        30.18R
6HR MIN TEMP:  50; 6HR MAX TEMP:  54;

MERIDIAN KEY   CLEAR     51  24  34 N10       30.13R
6HR MIN TEMP:  51; 6HR MAX TEMP:  56;

MERIDIAN NAS   CLEAR     51  25  36 N7        30.13R
6HR MIN TEMP:  51; 6HR MAX TEMP:  55;

RAYMOND        FAIR      48  45  87 MISG      30.19R
VICKSBURG      CLEAR     52  31  44 N10       30.21R
6HR MIN TEMP:  50; 6HR MAX TEMP:  54;

$$

MSZ059>079-160100-
SOUTH MISSISSIPPI

CITY           SKY/WX    TMP DP  RH WIND       PRES   REMARKS
BROOKHAVEN     FAIR      52  32  46 NW8       30.18R
COLUMBIA       FAIR      52  30  43 MISG      30.14R
HATTIESBURG    CLEAR     56  28  34 N7        30.13R
6HR MIN TEMP:  55; 6HR MAX TEMP:  59;

MCCOMB         CLEAR     53  27  36 N13       30.16R
6HR MIN TEMP:  53; 6HR MAX TEMP:  57;

NATCHEZ          N/A     52  30  43 N8        30.18S
PINE BELT      CLEAR     54  27  35 N7        30.14R
6HR MIN TEMP:  54; 6HR MAX TEMP:  57;

$$

MSZ080>082-160100-
COASTAL MISSISSIPPI

CITY           SKY/WX    TMP DP  RH WIND       PRES   REMARKS
BAY ST LOUIS   CLEAR     57  28  33 N6        30.11R
BILOXI         PTCLDY    57  31  36 N8        30.10R
6HR MIN TEMP:  55; 6HR MAX TEMP:  61;

PASCAGOULA     MOCLDY    56  34  43 N9        30.09R
6HR MIN TEMP:  52; 6HR MAX TEMP:  60;

GULFPORT       PTCLDY    59  28  30 N13       30.09R
6HR MIN TEMP:  57; 6HR MAX TEMP:  64;

$$



USA.gov is the U.S. government's official web portal to all federal, state and local government web resources and services.